EZY53JV EGKK-LFML

Flight info

Callsign EZY53JV
Flight time 1h 25m
Altitude 33000
Route SFD Y47 BENBO L612 HAWKE UL612 VEULE DCT KOTAP DCT KETEX DCT KOTIS DCT KUKOR DCT UTUVA DCT LERGA
Aircraft A320/M-SDE3FGHIRWY/LB1

Departure

Time 2026-05-04 14:53
Airport London Gatwick Airport (EGKK)

Arrival

Time 2026-05-04 16:19
Airport Marseille Provence Airport (LFML)
Time Latitude Longitude Altitude Speed Heading
2026-05-04 14:24 51.15641 -0.17854 208 ft 0 kts 168°
2026-05-04 14:25 51.15562 -0.17820 214 ft 0 kts 347°
2026-05-04 14:41 51.15549 -0.17815 217 ft 4 kts 342°
2026-05-04 14:41 51.15524 -0.17799 215 ft 4 kts 325°
2026-05-04 14:41 51.15507 -0.17750 213 ft 1 kts 257°
2026-05-04 14:42 51.15507 -0.17747 214 ft 0 kts 257°
2026-05-04 14:44 51.15505 -0.17758 213 ft 4 kts 257°
2026-05-04 14:45 51.15495 -0.17831 207 ft 10 kts 257°
2026-05-04 14:45 51.15476 -0.17968 210 ft 16 kts 257°
2026-05-04 14:45 51.15455 -0.18127 211 ft 11 kts 258°
2026-05-04 14:45 51.15429 -0.18268 213 ft 14 kts 229°
2026-05-04 14:46 51.15317 -0.18256 205 ft 19 kts 168°
2026-05-04 14:46 51.15198 -0.18235 215 ft 11 kts 221°
2026-05-04 14:46 51.15178 -0.18392 205 ft 18 kts 259°
2026-05-04 14:46 51.15153 -0.18576 209 ft 9 kts 257°
2026-05-04 14:47 51.15150 -0.18592 207 ft 0 kts 257°
2026-05-04 14:47 51.15150 -0.18597 205 ft 3 kts 257°
2026-05-04 14:48 51.15138 -0.18680 207 ft 12 kts 257°
2026-05-04 14:48 51.15114 -0.18859 215 ft 21 kts 258°
2026-05-04 14:48 51.15079 -0.19115 207 ft 25 kts 258°
2026-05-04 14:48 51.15031 -0.19272 208 ft 11 kts 189°
2026-05-04 14:49 51.14972 -0.19284 216 ft 8 kts 218°
2026-05-04 14:49 51.14946 -0.19406 207 ft 16 kts 257°
2026-05-04 14:49 51.14917 -0.19622 207 ft 24 kts 258°
2026-05-04 14:49 51.14877 -0.19912 209 ft 29 kts 257°
2026-05-04 14:50 51.14832 -0.20241 204 ft 31 kts 257°
2026-05-04 14:50 51.14784 -0.20583 214 ft 32 kts 258°
2026-05-04 14:50 51.14737 -0.20930 214 ft 31 kts 257°
2026-05-04 14:50 51.14695 -0.21230 214 ft 22 kts 257°
2026-05-04 14:51 51.14636 -0.21337 205 ft 12 kts 171°
2026-05-04 14:51 51.14612 -0.21328 209 ft 0 kts 166°
2026-05-04 14:51 51.14610 -0.21327 205 ft 2 kts 166°
2026-05-04 14:51 51.14584 -0.21315 213 ft 6 kts 161°
2026-05-04 14:52 51.14535 -0.21263 205 ft 11 kts 129°
2026-05-04 14:52 51.14519 -0.21181 210 ft 2 kts 77°
2026-05-04 14:52 51.14519 -0.21178 209 ft 0 kts 77°
2026-05-04 14:53 51.14566 -0.20841 214 ft 68 kts 78°
2026-05-04 14:53 51.14714 -0.19766 217 ft 128 kts 77°
2026-05-04 14:53 51.14938 -0.18139 295 ft 166 kts 77°
2026-05-04 14:53 51.15167 -0.16426 1101 ft 159 kts 78°
2026-05-04 14:54 51.15404 -0.14650 1647 ft 172 kts 78°
2026-05-04 14:54 51.15673 -0.12683 1992 ft 192 kts 78°
2026-05-04 14:54 51.15965 -0.10520 2385 ft 208 kts 78°
2026-05-04 14:54 51.16146 -0.08171 2790 ft 224 kts 99°
2026-05-04 14:55 51.15422 -0.05975 3425 ft 233 kts 137°
2026-05-04 14:55 51.13920 -0.04747 3809 ft 258 kts 163°
2026-05-04 14:55 51.12131 -0.04065 4516 ft 267 kts 168°
2026-05-04 14:55 51.10299 -0.03527 5398 ft 270 kts 170°
2026-05-04 14:56 51.08437 -0.02936 6287 ft 273 kts 167°
2026-05-04 14:56 51.06600 -0.02195 7115 ft 276 kts 165°
2026-05-04 14:56 51.04745 -0.01358 7965 ft 278 kts 164°
2026-05-04 14:56 51.02885 -0.00476 8795 ft 282 kts 163°
2026-05-04 14:57 51.00988 0.00438 9609 ft 285 kts 164°
2026-05-04 14:57 50.99106 0.01344 10386 ft 288 kts 163°
2026-05-04 14:57 50.97110 0.02299 10659 ft 311 kts 164°
2026-05-04 14:57 50.94958 0.03320 10903 ft 332 kts 164°
2026-05-04 14:58 50.92710 0.04382 11481 ft 340 kts 164°
2026-05-04 14:58 50.90430 0.05455 12157 ft 345 kts 164°
2026-05-04 14:58 50.88114 0.06545 12860 ft 349 kts 164°
2026-05-04 14:58 50.85784 0.07641 13586 ft 351 kts 164°
2026-05-04 14:59 50.83426 0.08749 14222 ft 355 kts 163°
2026-05-04 14:59 50.81057 0.09861 14881 ft 355 kts 164°
2026-05-04 14:59 50.76198 0.11697 16066 ft 364 kts 178°
2026-05-04 15:00 50.73676 0.11348 16688 ft 366 kts 192°
2026-05-04 15:00 50.71194 0.10447 17335 ft 367 kts 193°
2026-05-04 15:00 50.68695 0.09532 17957 ft 369 kts 193°
2026-05-04 15:01 50.63649 0.07696 19054 ft 374 kts 193°
2026-05-04 15:01 50.61094 0.06770 19561 ft 377 kts 193°
2026-05-04 15:01 50.58536 0.05846 20090 ft 378 kts 193°
2026-05-04 15:01 50.55999 0.04934 20605 ft 380 kts 193°
2026-05-04 15:02 50.53409 0.04002 21134 ft 382 kts 193°
2026-05-04 15:02 50.50813 0.03065 21648 ft 384 kts 193°
2026-05-04 15:02 50.48169 0.02479 22135 ft 386 kts 182°
2026-05-04 15:02 50.45482 0.02748 22621 ft 389 kts 171°
2026-05-04 15:03 50.42866 0.03892 23091 ft 393 kts 160°
2026-05-04 15:03 50.40428 0.05870 23543 ft 398 kts 148°
2026-05-04 15:03 50.38102 0.08288 23913 ft 400 kts 148°
2026-05-04 15:03 50.35782 0.10697 24307 ft 402 kts 148°
2026-05-04 15:04 50.33435 0.13119 24671 ft 404 kts 148°
2026-05-04 15:04 50.31078 0.15546 25064 ft 406 kts 148°
2026-05-04 15:04 50.28721 0.17973 25430 ft 408 kts 149°
2026-05-04 15:04 50.26350 0.20414 25792 ft 409 kts 149°
2026-05-04 15:05 50.23961 0.22866 26156 ft 411 kts 149°
2026-05-04 15:05 50.21587 0.25295 26504 ft 413 kts 149°
2026-05-04 15:05 50.19183 0.27753 26862 ft 415 kts 149°
2026-05-04 15:05 50.16741 0.30262 27278 ft 415 kts 149°
2026-05-04 15:06 50.14353 0.32721 27651 ft 416 kts 149°
2026-05-04 15:06 50.11930 0.35213 28001 ft 418 kts 149°
2026-05-04 15:06 50.09505 0.37705 28339 ft 419 kts 149°
2026-05-04 15:07 50.04611 0.42732 28981 ft 423 kts 149°
2026-05-04 15:07 50.02152 0.45248 29283 ft 424 kts 149°
2026-05-04 15:07 49.99672 0.47778 29560 ft 426 kts 149°
2026-05-04 15:07 49.97186 0.50305 29843 ft 428 kts 149°
2026-05-04 15:08 49.94696 0.52834 30127 ft 429 kts 149°
2026-05-04 15:08 49.92186 0.55383 30377 ft 431 kts 149°
2026-05-04 15:08 49.89672 0.57934 30607 ft 432 kts 149°
2026-05-04 15:08 49.87183 0.60455 30924 ft 431 kts 149°
2026-05-04 15:09 49.84681 0.63003 31230 ft 431 kts 148°
2026-05-04 15:09 49.82208 0.65643 31558 ft 431 kts 147°
2026-05-04 15:09 49.79775 0.68351 31883 ft 430 kts 146°
2026-05-04 15:10 49.74954 0.73827 32533 ft 430 kts 146°
2026-05-04 15:10 49.72536 0.76553 32835 ft 429 kts 147°
2026-05-04 15:10 49.67689 0.81923 33439 ft 429 kts 147°
2026-05-04 15:11 49.65251 0.84588 33782 ft 428 kts 147°
2026-05-04 15:11 49.62813 0.87248 34080 ft 428 kts 147°
2026-05-04 15:11 49.60383 0.89897 34314 ft 428 kts 147°
2026-05-04 15:11 49.57987 0.92514 34570 ft 428 kts 147°
2026-05-04 15:12 49.55555 0.95177 34787 ft 428 kts 147°
2026-05-04 15:12 49.53125 0.97839 34947 ft 430 kts 147°
2026-05-04 15:12 49.50691 1.00511 34973 ft 429 kts 147°
2026-05-04 15:13 49.45826 1.05826 34976 ft 429 kts 147°
2026-05-04 15:13 49.40953 1.11118 34978 ft 428 kts 147°
2026-05-04 15:14 49.36084 1.16384 34974 ft 428 kts 147°
2026-05-04 15:14 49.31215 1.21650 34975 ft 429 kts 148°
2026-05-04 15:15 49.26343 1.26906 34972 ft 428 kts 148°
2026-05-04 15:15 49.21474 1.32151 34952 ft 428 kts 148°
2026-05-04 15:16 49.14173 1.39987 34948 ft 427 kts 148°
2026-05-04 15:17 49.06913 1.47745 34953 ft 426 kts 148°
2026-05-04 15:17 48.99634 1.55490 34949 ft 425 kts 148°
2026-05-04 15:18 48.94786 1.60651 34952 ft 426 kts 148°
2026-05-04 15:19 48.87475 1.68397 34956 ft 425 kts 148°
2026-05-04 15:19 48.80220 1.76060 34935 ft 425 kts 149°
2026-05-04 15:20 48.75363 1.81159 34941 ft 425 kts 149°
2026-05-04 15:20 48.70487 1.86264 34939 ft 425 kts 149°
2026-05-04 15:21 48.65614 1.91359 34956 ft 426 kts 149°
2026-05-04 15:22 48.58311 1.98992 34955 ft 426 kts 149°
2026-05-04 15:22 48.51018 2.06576 34943 ft 426 kts 149°
2026-05-04 15:23 48.46136 2.11633 34952 ft 426 kts 149°
2026-05-04 15:23 48.41246 2.16683 34944 ft 426 kts 149°
2026-05-04 15:24 48.31467 2.26774 34946 ft 425 kts 149°
2026-05-04 15:25 48.26280 2.30787 34949 ft 417 kts 165°
2026-05-04 15:26 48.17923 2.34158 34942 ft 416 kts 168°
2026-05-04 15:26 48.09569 2.37658 34936 ft 416 kts 165°
2026-05-04 15:27 48.01340 2.41892 34938 ft 417 kts 164°
2026-05-04 15:28 47.93092 2.46067 34936 ft 416 kts 165°
2026-05-04 15:29 47.84840 2.50122 34937 ft 416 kts 165°
2026-05-04 15:30 47.66547 2.59110 34943 ft 415 kts 166°
2026-05-04 15:31 47.58326 2.63131 34947 ft 415 kts 166°
2026-05-04 15:32 47.44620 2.69797 34945 ft 414 kts 166°
2026-05-04 15:34 47.30906 2.76435 34936 ft 415 kts 166°
2026-05-04 15:34 47.22717 2.80378 34935 ft 414 kts 166°
2026-05-04 15:35 47.14489 2.84336 34935 ft 414 kts 166°
2026-05-04 15:36 47.06265 2.88277 34925 ft 414 kts 166°
2026-05-04 15:36 47.00776 2.90891 34906 ft 414 kts 166°
2026-05-04 15:37 46.95329 2.93484 34908 ft 414 kts 166°
2026-05-04 15:37 46.89839 2.96102 34903 ft 415 kts 166°
2026-05-04 15:38 46.84343 2.98710 34910 ft 415 kts 166°
2026-05-04 15:38 46.78845 3.01310 34917 ft 416 kts 166°
2026-05-04 15:39 46.73338 3.03911 34925 ft 416 kts 166°
2026-05-04 15:40 46.65079 3.07796 34935 ft 416 kts 166°
2026-05-04 15:40 46.59564 3.10397 34934 ft 416 kts 166°
2026-05-04 15:41 46.54054 3.12986 34937 ft 416 kts 166°
2026-05-04 15:41 46.48588 3.15787 34930 ft 417 kts 164°
2026-05-04 15:42 46.43152 3.18791 34929 ft 418 kts 163°
2026-05-04 15:42 46.37725 3.21786 34904 ft 417 kts 164°
2026-05-04 15:43 46.32276 3.24731 34899 ft 419 kts 165°
2026-05-04 15:43 46.26846 3.27626 34896 ft 419 kts 165°
2026-05-04 15:44 46.21362 3.30534 34897 ft 420 kts 165°
2026-05-04 15:44 46.15878 3.33453 34904 ft 420 kts 165°
2026-05-04 15:45 46.10391 3.36377 34897 ft 420 kts 165°
2026-05-04 15:45 46.04911 3.39294 34910 ft 420 kts 165°
2026-05-04 15:46 45.99430 3.42203 34929 ft 420 kts 165°
2026-05-04 15:46 45.93948 3.45090 34942 ft 419 kts 165°
2026-05-04 15:47 45.88473 3.47970 34943 ft 419 kts 165°
2026-05-04 15:47 45.83002 3.50710 34946 ft 417 kts 167°
2026-05-04 15:48 45.77451 3.53066 34945 ft 416 kts 169°
2026-05-04 15:48 45.69092 3.56518 34958 ft 417 kts 168°
2026-05-04 15:49 45.63526 3.58901 34962 ft 416 kts 168°
2026-05-04 15:49 45.57984 3.61291 34795 ft 417 kts 168°
2026-05-04 15:50 45.55207 3.62487 34548 ft 416 kts 168°
2026-05-04 15:50 45.52430 3.63678 34315 ft 416 kts 168°
2026-05-04 15:50 45.49657 3.64860 34069 ft 414 kts 168°
2026-05-04 15:50 45.46896 3.66033 33620 ft 415 kts 168°
2026-05-04 15:51 45.44107 3.67214 32648 ft 419 kts 168°
2026-05-04 15:51 45.41354 3.68386 32049 ft 416 kts 168°
2026-05-04 15:51 45.38568 3.69576 31520 ft 410 kts 167°
2026-05-04 15:51 45.35844 3.70735 30972 ft 406 kts 167°
2026-05-04 15:52 45.33176 3.71864 30436 ft 403 kts 167°
2026-05-04 15:52 45.30512 3.73006 29859 ft 400 kts 165°
2026-05-04 15:52 45.27962 3.74611 29306 ft 401 kts 155°
2026-05-04 15:52 45.25668 3.76866 28814 ft 402 kts 144°
2026-05-04 15:53 45.23701 3.79734 28665 ft 411 kts 134°
2026-05-04 15:53 45.22064 3.83099 28427 ft 416 kts 128°
2026-05-04 15:53 45.20498 3.86558 28172 ft 416 kts 128°
2026-05-04 15:53 45.18933 3.89996 27941 ft 415 kts 129°
2026-05-04 15:54 45.17364 3.93437 27700 ft 414 kts 129°
2026-05-04 15:54 45.15806 3.96849 27460 ft 412 kts 128°
2026-05-04 15:54 45.14257 4.00241 27218 ft 410 kts 128°
2026-05-04 15:54 45.12711 4.03623 26984 ft 408 kts 128°
2026-05-04 15:55 45.11169 4.06992 26744 ft 406 kts 128°
2026-05-04 15:55 45.09634 4.10334 26505 ft 405 kts 128°
2026-05-04 15:55 45.08101 4.13664 26280 ft 404 kts 128°
2026-05-04 15:55 45.06574 4.16984 26064 ft 402 kts 128°
2026-05-04 15:56 45.05016 4.20255 25842 ft 398 kts 133°
2026-05-04 15:56 45.03201 4.23173 25597 ft 393 kts 141°
2026-05-04 15:56 45.01125 4.25644 25373 ft 388 kts 149°
2026-05-04 15:56 44.98885 4.27632 25152 ft 383 kts 154°
2026-05-04 15:57 44.96549 4.29535 25131 ft 395 kts 154°
2026-05-04 15:57 44.94137 4.31498 25133 ft 404 kts 154°
2026-05-04 15:57 44.91681 4.33505 25135 ft 407 kts 154°
2026-05-04 15:57 44.89238 4.35511 25129 ft 409 kts 154°
2026-05-04 15:58 44.86778 4.37534 25129 ft 410 kts 154°
2026-05-04 15:58 44.84346 4.39538 24989 ft 398 kts 154°
2026-05-04 15:58 44.81993 4.41475 24756 ft 388 kts 154°
2026-05-04 15:58 44.79669 4.43380 24513 ft 383 kts 154°
2026-05-04 15:59 44.77384 4.45248 24109 ft 377 kts 154°
2026-05-04 15:59 44.75122 4.47092 23660 ft 373 kts 154°
2026-05-04 15:59 44.72891 4.48911 23175 ft 368 kts 154°
2026-05-04 15:59 44.70719 4.50679 22745 ft 363 kts 154°
2026-05-04 16:00 44.68545 4.52441 22323 ft 358 kts 155°
2026-05-04 16:00 44.66304 4.53846 21909 ft 350 kts 165°
2026-05-04 16:00 44.63898 4.54705 21497 ft 355 kts 171°
2026-05-04 16:00 44.61498 4.55438 21085 ft 356 kts 171°
2026-05-04 16:01 44.59062 4.56195 20681 ft 355 kts 170°
2026-05-04 16:01 44.56676 4.56943 20256 ft 353 kts 170°
2026-05-04 16:01 44.54259 4.57703 19833 ft 351 kts 170°
2026-05-04 16:01 44.51909 4.58441 19430 ft 349 kts 170°
2026-05-04 16:02 44.49543 4.59183 19035 ft 347 kts 170°
2026-05-04 16:02 44.47196 4.59918 18638 ft 345 kts 170°
2026-05-04 16:02 44.42549 4.61365 17793 ft 340 kts 170°
2026-05-04 16:03 44.40244 4.62082 17397 ft 337 kts 170°
2026-05-04 16:03 44.37956 4.62793 17012 ft 336 kts 170°
2026-05-04 16:03 44.35677 4.63499 16622 ft 334 kts 170°
2026-05-04 16:03 44.33424 4.64198 16235 ft 332 kts 170°
2026-05-04 16:04 44.31172 4.64874 15850 ft 329 kts 173°
2026-05-04 16:04 44.26656 4.65565 15095 ft 324 kts 176°
2026-05-04 16:04 44.24415 4.65888 14713 ft 322 kts 176°
2026-05-04 16:05 44.22222 4.66206 14347 ft 321 kts 176°
2026-05-04 16:05 44.19998 4.66528 13970 ft 319 kts 176°
2026-05-04 16:05 44.15613 4.67170 13199 ft 315 kts 176°
2026-05-04 16:06 44.13443 4.67487 12827 ft 313 kts 176°
2026-05-04 16:06 44.07906 4.69953 11869 ft 313 kts 161°
2026-05-04 16:07 44.05237 4.71454 11386 ft 310 kts 161°
2026-05-04 16:07 43.99286 4.74791 10324 ft 303 kts 160°
2026-05-04 16:08 43.97364 4.75870 10203 ft 291 kts 160°
2026-05-04 16:08 43.91964 4.78906 9645 ft 274 kts 160°
2026-05-04 16:09 43.88437 4.80883 8872 ft 273 kts 160°
2026-05-04 16:09 43.84917 4.82846 8140 ft 272 kts 160°
2026-05-04 16:10 43.81425 4.84796 7409 ft 268 kts 160°
2026-05-04 16:11 43.76299 4.87666 6320 ft 263 kts 159°
2026-05-04 16:11 43.74608 4.88615 5984 ft 261 kts 159°
2026-05-04 16:12 43.69662 4.91400 5151 ft 245 kts 158°
2026-05-04 16:12 43.65264 4.93909 4847 ft 216 kts 157°
2026-05-04 16:13 43.62471 4.95502 4640 ft 217 kts 157°
2026-05-04 16:13 43.60075 4.98014 4258 ft 217 kts 135°
2026-05-04 16:14 43.58023 5.00979 3861 ft 216 kts 134°
2026-05-04 16:14 43.55964 5.03933 3230 ft 210 kts 133°
2026-05-04 16:15 43.53033 5.08130 2408 ft 190 kts 132°
2026-05-04 16:16 43.51286 5.10629 1920 ft 170 kts 133°
2026-05-04 16:16 43.49224 5.13576 1351 ft 126 kts 134°
2026-05-04 16:17 43.48014 5.15304 1020 ft 126 kts 133°
2026-05-04 16:18 43.46368 5.17659 579 ft 132 kts 132°
2026-05-04 16:18 43.45502 5.18889 248 ft 138 kts 131°
2026-05-04 16:19 43.43852 5.21250 37 ft 89 kts 135°
2026-05-04 16:19 43.43386 5.21913 35 ft 30 kts 132°
2026-05-04 16:20 43.43414 5.22282 37 ft 9 kts 352°
2026-05-04 16:20 43.43493 5.22227 37 ft 8 kts 330°
2026-05-04 16:21 43.43793 5.22045 37 ft 13 kts 40°
2026-05-04 16:22 43.43927 5.22128 37 ft 10 kts 313°
2026-05-04 16:22 43.43971 5.21951 37 ft 9 kts 223°
2026-05-04 16:23 43.43973 5.21631 37 ft 18 kts 243°
2026-05-04 16:24 43.44175 5.21488 37 ft 16 kts 44°
2026-05-04 16:25 43.44207 5.21564 37 ft 5 kts 138°
2026-05-04 16:26 43.44182 5.21636 37 ft 0 kts 92°